Location: La Comballaz
(46.3780°N, 7.0817°E)
Time: 01:37:41
(UTC+00:00)

X-37B - Pass Details

Date: 11 December 2021
Orbit: 334 x 337 km, 45.0° (Epoch: 11 January)

Event Time Altitude Azimuth Distance (km) Brightness Sun altitude
Rises 18:34:14 0° 271° (W) 2,105 5.6 -28.2°
Reaches altitude 10° 18:36:15 10° 268° (W) 1,267 4.1 -28.5°
Enters shadow 18:36:18 10° 268° (W) 1,246 4.1 -28.5°
